W4RJF Weather Reports


Display with metric or nautical units.
time (UTC)temp
F
wind
direction
speed
MPH
gust
MPH
rain 1hr
in
rain 24hr
in
rain mn
in
humidity
%
barometer
mb
20260509095003 52 186 0.0 0.0 0.00 0.00 0.00 93 1013.0
20260509094510 52 186 0.0 0.0 0.00 0.00 0.00 93 1013.2
20260509094006 53 186 0.0 0.0 0.00 0.00 0.00 93 1013.3
20260509093506 53 186 0.0 0.0 0.00 0.00 0.00 93 1013.3
20260509093016 53 186 0.0 0.0 0.00 0.00 0.00 93 1013.3
20260509092506 53 186 0.0 0.0 0.00 0.00 0.00 93 1013.3
20260509092007 53 186 0.0 0.0 0.00 0.00 0.00 93 1013.2
20260509091520 53 186 0.0 0.0 0.00 0.00 0.00 93 1013.3
20260509091006 53 186 0.0 0.0 0.00 0.00 0.00 93 1013.3
20260509090509 53 186 0.0 0.0 0.00 0.00 0.00 93 1013.3
20260509090026 53 186 0.0 0.0 0.00 0.00 0.00 93 1013.4
20260509085507 52 186 0.0 0.0 0.00 0.00 0.00 93 1013.7
20260509085008 53 186 0.0 0.0 0.00 0.00 0.00 92 1013.8
20260509084534 53 186 0.0 0.0 0.00 0.00 0.00 92 1013.9
20260509084003 53 186 0.0 0.0 0.00 0.00 0.00 92 1014.1
20260509083504 53 186 0.0 0.0 0.00 0.00 0.00 92 1014.2
20260509082507 53 186 0.0 0.0 0.00 0.00 0.00 92 1014.2
20260509082007 53 186 0.0 0.0 0.00 0.00 0.00 91 1014.2
20260509081008 54 186 0.0 0.0 0.00 0.00 0.00 91 1014.4
20260509080507 54 186 0.0 0.0 0.00 0.00 0.00 91 1014.4
20260509075505 54 186 0.0 0.0 0.00 0.00 0.00 90 1014.3
20260509075009 54 186 0.0 0.0 0.00 0.00 0.00 90 1014.2
20260509074526 54 186 0.0 0.0 0.00 0.00 0.00 90 1014.3
20260509074008 54 186 0.0 0.0 0.00 0.00 0.00 90 1014.2
20260509073507 54 186 0.0 0.0 0.00 0.00 0.00 90 1014.2
20260509073010 54 186 0.0 0.0 0.00 0.00 0.00 90 1014.3
20260509072503 55 186 0.0 0.0 0.00 0.00 0.00 90 1014.3
20260509072006 55 186 0.0 0.0 0.00 0.00 0.00 89 1014.3
20260509071007 55 186 0.0 0.0 0.00 0.00 0.00 88 1014.4
20260509070507 55 186 0.0 0.0 0.00 0.00 0.00 88 1014.4
20260509070019 55 186 0.0 0.0 0.00 0.00 0.00 88 1014.6
20260509065508 55 186 0.0 0.0 0.00 0.00 0.00 88 1014.6
20260509065010 55 186 0.0 0.0 0.00 0.00 0.00 88 1014.6
20260509064012 56 186 0.0 0.0 0.00 0.00 0.00 88 1014.7
20260509063508 56 186 0.0 0.0 0.00 0.00 0.00 87 1014.7
20260509063023 56 186 0.0 0.0 0.00 0.00 0.00 87 1014.8
20260509062513 56 186 0.0 0.0 0.00 0.00 0.00 87 1014.7
20260509062013 56 186 0.0 0.0 0.00 0.00 0.00 86 1014.8
20260509061517 56 186 0.0 0.0 0.00 0.00 0.00 85 1014.9
20260509061006 57 186 0.0 0.0 0.00 0.00 0.00 85 1015.1
20260509060507 57 186 0.0 0.0 0.00 0.00 0.00 84 1015.2
20260509060017 57 186 0.0 0.0 0.00 0.00 0.00 84 1015.4
20260509055511 57 186 0.0 0.0 0.00 0.00 0.00 84 1015.4
20260509055010 57 186 0.0 0.0 0.00 0.00 0.00 83 1015.5
20260509054520 57 186 0.0 0.0 0.00 0.00 0.00 83 1015.5
20260509054007 57 186 0.0 0.0 0.00 0.00 0.00 83 1015.5
20260509053510 57 186 0.0 0.0 0.00 0.00 0.00 82 1015.6
20260509053022 57 186 0.0 0.0 0.00 0.00 0.00 82 1015.5
20260509052508 58 186 0.0 0.0 0.00 0.00 0.00 82 1015.5
20260509052008 58 186 0.0 0.0 0.00 0.00 0.00 81 1015.7
20260509051525 58 186 0.0 0.0 0.00 0.00 0.00 81 1015.7
20260509051010 58 186 0.0 0.0 0.00 0.00 0.00 80 1015.7
20260509050504 58 186 0.0 0.0 0.00 0.00 0.00 80 1015.8
20260509050018 58 186 0.0 1.0 0.00 0.00 0.00 80 1015.8
20260509045508 58 186 0.0 1.0 0.00 0.00 0.00 79 1015.8
20260509045004 58 193 0.0 2.0 0.00 0.00 0.00 79 1015.8
20260509044521 58 193 0.0 2.0 0.00 0.00 0.00 78 1015.8
20260509044009 58 193 0.0 2.0 0.00 0.00 0.00 78 1015.8
20260509043508 58 193 0.0 1.0 0.00 0.00 0.00 78 1015.9
20260509043022 58 193 0.0 2.0 0.00 0.00 0.00 77 1015.8
20260509042507 59 193 0.0 2.0 0.00 0.00 0.00 77 1015.8
20260509042010 59 192 0.0 2.0 0.00 0.00 0.00 76 1015.9
20260509041535 59 190 0.0 2.0 0.00 0.00 0.00 76 1015.8
20260509041008 59 190 0.0 2.0 0.00 0.00 0.00 76 1015.8
20260509040509 59 190 0.0 2.0 0.00 0.00 0.00 75 1015.8
20260509040028 59 190 0.0 2.0 0.00 0.00 0.00 75 1015.6
20260509035508 59 190 0.0 2.0 0.00 0.00 0.00 75 1015.8
20260509035005 59 190 0.0 2.0 0.00 0.00 0.00 74 1015.6
20260509034518 59 191 0.0 2.0 0.00 0.00 0.00 74 1015.9
20260509034004 59 195 0.0 2.0 0.00 0.00 0.00 74 1015.9
20260509033508 59 190 0.0 2.0 0.00 0.00 0.00 74 1015.8
20260509032503 59 189 0.0 2.0 0.00 0.00 0.00 74 1015.9
20260509032004 59 189 0.0 2.0 0.00 0.00 0.00 74 1016.1
20260509031504 59 193 0.0 2.0 0.00 0.00 0.00 73 1016.1
20260509031004 59 191 0.0 2.0 0.00 0.00 0.00 74 1015.9
20260509030508 59 191 0.0 2.0 0.00 0.00 0.00 74 1016.0
20260509025504 59 198 0.0 2.0 0.00 0.00 0.00 73 1015.8
20260509025004 59 187 1.0 2.0 0.00 0.00 0.00 73 1016.0
20260509024006 59 190 0.0 2.0 0.00 0.00 0.00 73 1016.0
20260509023506 58 201 0.0 2.0 0.00 0.00 0.00 74 1016.1
20260509023021 58 196 0.0 2.0 0.00 0.00 0.00 76 1016.0
20260509022513 57 196 0.0 2.0 0.00 0.00 0.00 80 1015.9
20260509022003 57 196 0.0 0.0 0.00 0.00 0.00 80 1015.9
20260509021003 57 196 0.0 0.0 0.00 0.00 0.00 77 1015.9
20260509020504 57 196 0.0 0.0 0.00 0.00 0.00 78 1015.9
20260509020008 58 196 0.0 0.0 0.00 0.00 0.00 76 1015.8
20260509015503 58 196 0.0 0.0 0.00 0.00 0.00 78 1015.9
20260509015003 58 196 0.0 0.0 0.00 0.00 0.00 77 1015.8
20260509014517 58 196 0.0 0.0 0.00 0.00 0.00 76 1015.7
20260509014005 58 196 0.0 0.0 0.00 0.00 0.00 76 1015.7
20260509013507 58 196 0.0 0.0 0.00 0.01 0.00 76 1015.8
20260509013020 58 196 0.0 0.0 0.00 0.01 0.00 77 1015.8
20260509012506 58 196 0.0 0.0 0.00 0.01 0.00 77 1015.6
20260509012007 59 196 0.0 0.0 0.00 0.01 0.00 76 1015.5
20260509011528 59 196 0.0 0.0 0.00 0.01 0.00 76 1015.5
20260509011004 59 196 0.0 0.0 0.00 0.01 0.00 75 1015.4
20260509010503 59 196 0.0 0.0 0.00 0.01 0.00 71 1015.3
20260509005502 59 196 0.0 0.0 0.00 0.01 0.00 69 1015.3
20260509005002 60 196 0.0 0.0 0.00 0.01 0.00 71 1015.2
20260509004006 60 196 0.0 0.0 0.00 0.02 0.00 68 1015.1
20260509003506 61 196 0.0 0.0 0.00 0.02 0.00 69 1015.0
20260509003016 61 196 0.0 0.0 0.00 0.05 0.00 67 1015.0
20260509002506 61 196 0.0 0.0 0.00 0.09 0.00 66 1015.0
20260509002010 61 196 0.0 0.0 0.00 0.12 0.00 65 1014.8
20260509001007 62 196 0.0 0.0 0.00 0.15 0.00 63 1014.8
20260509000508 62 196 0.0 0.0 0.00 0.15 0.00 62 1014.9
20260509000023 63 196 0.0 0.0 0.00 0.15 0.00 62 1014.8
20260508235503 63 196 0.0 0.0 0.00 0.15 0.00 61 1015.0
20260508235009 63 196 0.0 0.0 0.00 0.15 0.00 62 1015.0
20260508234004 64 196 0.0 0.0 0.00 0.15 0.00 59 1014.9
20260508233504 65 196 0.0 0.0 0.00 0.15 0.00 57 1014.9
20260508232505 66 196 0.0 1.0 0.00 0.15 0.00 51 1014.9
20260508232007 66 196 0.0 1.0 0.00 0.15 0.00 50 1014.9
20260508231520 66 196 0.0 0.0 0.00 0.15 0.00 50 1014.9
20260508231007 67 196 0.0 2.0 0.00 0.15 0.00 50 1014.9
20260508230507 67 196 0.0 2.0 0.00 0.15 0.00 48 1014.7
20260508225507 67 196 0.0 2.0 0.00 0.15 0.00 49 1014.8
20260508225011 68 196 0.0 2.0 0.00 0.15 0.00 48 1014.9
20260508224507 68 196 0.0 2.0 0.00 0.15 0.00 47 1014.9
20260508224003 68 203 0.0 2.0 0.00 0.15 0.00 47 1014.9
20260508223506 68 196 0.0 2.0 0.00 0.15 0.00 45 1014.9
20260508223010 68 201 0.0 1.0 0.00 0.15 0.00 46 1014.7
20260508222507 68 206 0.0 0.0 0.00 0.15 0.00 50 1014.7
20260508222008 68 206 0.0 0.0 0.00 0.15 0.00 47 1014.7
20260508221007 68 206 0.0 2.0 0.00 0.15 0.00 47 1014.7
20260508220509 68 206 0.0 2.0 0.00 0.15 0.00 48 1014.6
20260508215507 68 206 0.0 0.0 0.00 0.15 0.00 43 1014.5
20260508215008 68 206 0.0 3.0 0.00 0.15 0.00 45 1014.5
20260508214526 69 206 0.0 3.0 0.00 0.15 0.00 39 1014.4
20260508214008 69 197 0.0 2.0 0.00 0.15 0.00 43 1014.5
20260508213502 69 198 1.0 2.0 0.00 0.15 0.00 41 1014.5
20260508213020 69 229 1.0 2.0 0.00 0.15 0.00 40 1014.5
20260508212507 70 186 0.0 2.0 0.00 0.15 0.00 43 1014.5
20260508212003 70 186 0.0 2.0 0.00 0.15 0.00 45 1014.5
20260508211516 71 184 0.0 2.0 0.00 0.15 0.00 38 1014.5
20260508211007 71 188 0.0 2.0 0.00 0.15 0.00 44 1014.5
20260508210504 71 192 0.0 2.0 0.00 0.15 0.00 40 1014.6
20260508210020 71 192 0.0 2.0 0.00 0.15 0.00 39 1014.6
20260508205510 70 239 0.0 2.0 0.00 0.15 0.00 42 1014.7
20260508205008 70 254 0.0 2.0 0.00 0.15 0.00 40 1014.7
20260508204525 70 352 1.0 2.0 0.00 0.15 0.00 38 1014.8
20260508204011 71 350 0.0 2.0 0.00 0.15 0.00 38 1014.8
20260508203511 71 212 0.0 2.0 0.00 0.15 0.00 41 1015.0
20260508203024 71 178 0.0 2.0 0.00 0.15 0.00 38 1015.3
20260508202512 71 188 0.0 3.0 0.00 0.15 0.00 38 1015.2
20260508202004 70 240 1.0 6.0 0.00 0.15 0.00 39 1015.2
20260508201513 71 200 0.0 6.0 0.00 0.16 0.00 40 1015.2
20260508201009 71 286 0.0 2.0 0.00 0.16 0.00 39 1015.1
20260508200504 71 193 0.0 2.0 0.00 0.16 0.00 38 1015.2
20260508200019 71 251 0.0 2.0 0.00 0.16 0.00 37 1015.2
20260508195504 71 193 0.0 2.0 0.00 0.16 0.00 41 1015.4
20260508195008 71 176 0.0 2.0 0.00 0.16 0.00 41 1015.4
20260508194520 73 161 0.0 2.0 0.00 0.16 0.00 41 1015.5
20260508194009 73 190 0.0 3.0 0.00 0.16 0.00 37 1015.5
20260508193511 73 177 0.0 3.0 0.00 0.16 0.00 40 1015.6
20260508193026 72 190 0.0 2.0 0.00 0.16 0.00 39 1015.6
20260508192511 72 236 0.0 2.0 0.00 0.16 0.00 37 1015.7
20260508192008 72 314 0.0 2.0 0.00 0.16 0.00 36 1015.6
20260508191530 71 90 0.0 3.0 0.00 0.16 0.00 38 1015.7
20260508191004 72 178 0.0 3.0 0.00 0.16 0.00 43 1015.8
20260508190505 72 109 0.0 2.0 0.00 0.16 0.00 42 1015.9
20260508190015 72 191 1.0 2.0 0.00 0.16 0.00 45 1015.9
20260508185508 70 350 0.0 2.0 0.00 0.16 0.00 42 1016.1
20260508185004 69 36 0.0 3.0 0.00 0.16 0.00 40 1016.2
20260508184524 71 239 0.0 3.0 0.00 0.16 0.00 42 1016.3
20260508184009 71 203 0.0 3.0 0.00 0.16 0.00 44 1016.3
20260508183508 70 220 0.0 2.0 0.00 0.16 0.00 45 1016.3
20260508183022 71 202 0.0 2.0 0.00 0.16 0.00 42 1016.4
20260508181515 70 258 0.0 2.0 0.00 0.16 0.00 43 1016.6
20260508181005 70 234 0.0 2.0 0.00 0.16 0.00 45 1016.6
20260508180508 69 286 0.0 3.0 0.00 0.16 0.00 48 1016.7
20260508180012 68 20 0.0 3.0 0.00 0.16 0.00 43 1016.8
20260508175504 67 304 0.0 2.0 0.00 0.16 0.00 46 1017.0
20260508175006 67 338 0.0 2.0 0.00 0.16 0.00 44 1017.1
20260508174533 67 281 0.0 2.0 0.00 0.16 0.00 42 1017.1
20260508174008 67 176 0.0 2.0 0.00 0.16 0.00 44 1017.2
20260508173507 67 209 0.0 3.0 0.00 0.16 0.00 38 1017.2
20260508173021 66 190 0.0 3.0 0.00 0.16 0.00 41 1017.1
20260508172507 66 170 0.0 2.0 0.00 0.16 0.00 45 1017.1
20260508172010 66 159 0.0 2.0 0.00 0.16 0.00 48 1017.1
20260508171506 66 121 0.0 2.0 0.00 0.16 0.00 50 1017.1
20260508171002 66 185 0.0 2.0 0.00 0.16 0.00 51 1017.1
20260508170010 65 82 0.0 2.0 0.00 0.16 0.00 50 1017.1
20260508165503 65 296 0.0 2.0 0.00 0.16 0.00 49 1017.2
20260508165005 65 103 0.0 2.0 0.00 0.16 0.00 51 1017.3
20260508164523 64 38 0.0 2.0 0.00 0.16 0.00 52 1017.5
20260508164007 64 323 1.0 2.0 0.00 0.16 0.00 50 1017.6
20260508163508 64 197 0.0 2.0 0.00 0.16 0.00 50 1017.7
20260508163019 64 165 0.0 2.0 0.00 0.16 0.00 56 1017.8
20260508162508 64 244 0.0 3.0 0.00 0.16 0.00 52 1017.8
20260508162008 64 322 1.0 3.0 0.00 0.16 0.00 50 1017.8
20260508161525 64 71 1.0 3.0 0.00 0.16 0.00 54 1017.9
20260508161009 64 82 0.0 2.0 0.00 0.16 0.00 49 1017.9
20260508160509 64 88 0.0 2.0 0.00 0.16 0.00 50 1017.9
20260508160009 63 79 0.0 2.0 0.00 0.16 0.00 51 1018.0
20260508154513 63 350 0.0 2.0 0.00 0.16 0.00 52 1018.2
20260508154006 63 44 0.0 2.0 0.00 0.16 0.00 52 1018.3
20260508153511 63 74 0.0 2.0 0.00 0.16 0.00 60 1018.3
20260508153018 62 263 0.0 3.0 0.00 0.16 0.00 53 1018.2
20260508152509 63 100 0.0 3.0 0.00 0.17 0.00 53 1018.3
20260508152007 64 86 0.0 2.0 0.00 0.17 0.00 60 1018.3
20260508151524 63 148 0.0 2.0 0.00 0.17 0.00 61 1018.3
20260508151012 62 62 0.0 2.0 0.00 0.18 0.00 58 1018.3
20260508150515 62 346 0.0 2.0 0.00 0.20 0.00 58 1018.3
20260508150025 62 103 1.0 2.0 0.00 0.21 0.00 55 1018.3
20260508145510 62 9 0.0 2.0 0.00 0.23 0.00 59 1018.3
20260508145001 61 108 0.0 2.0 0.00 0.25 0.00 60 1018.2
20260508143016 60 98 1.0 2.0 0.00 0.46 0.00 65 1018.2
20260508142507 60 94 0.0 2.0 0.00 0.51 0.00 66 1018.1
20260508142009 59 55 0.0 6.0 0.00 0.55 0.00 66 1018.2
20260508141520 59 73 1.0 6.0 0.00 0.61 0.00 65 1018.2
20260508141009 59 104 2.0 4.0 0.00 0.66 0.00 64 1018.1
20260508140506 59 90 1.0 2.0 0.00 0.71 0.00 68 1018.0
20260508140024 58 284 0.0 3.0 0.00 0.73 0.00 72 1018.0
20260508135512 58 118 1.0 3.0 0.00 0.73 0.00 73 1018.0
20260508135013 58 94 0.0 3.0 0.00 0.73 0.00 76 1018.0
20260508134525 57 19 0.0 3.0 0.00 0.73 0.00 74 1017.9
20260508134010 57 87 0.0 2.0 0.00 0.73 0.00 78 1017.9
20260508133506 56 230 0.0 3.0 0.00 0.73 0.00 79 1017.8
20260508132008 56 63 1.0 2.0 0.00 0.73 0.00 86 1017.7
20260508131520 56 321 0.0 2.0 0.00 0.73 0.00 84 1017.8
20260508131007 55 269 0.0 2.0 0.00 0.73 0.00 83 1017.7
20260508130508 55 321 0.0 2.0 0.00 0.73 0.00 87 1017.8
20260508130022 54 239 0.0 2.0 0.00 0.73 0.00 86 1017.8
20260508125510 54 92 0.0 2.0 0.00 0.73 0.00 89 1017.8
20260508125012 54 227 0.0 2.0 0.00 0.73 0.00 90 1017.8
20260508124525 54 290 0.0 2.0 0.00 0.73 0.00 91 1017.7
20260508124011 54 280 0.0 2.0 0.00 0.73 0.00 90 1017.7
20260508123510 53 42 0.0 2.0 0.00 0.73 0.00 92 1017.7
20260508122503 53 313 0.0 1.0 0.00 0.73 0.00 95 1017.5
20260508122006 53 308 0.0 1.0 0.00 0.73 0.00 96 1017.4
20260508120507 52 271 0.0 0.0 0.00 0.73 0.00 97 1017.3
20260508120021 52 269 0.0 1.0 0.00 0.73 0.00 97 1017.3
20260508115511 51 264 0.0 1.0 0.00 0.73 0.00 97 1017.1
20260508115008 51 312 0.0 0.0 0.00 0.73 0.00 97 1017.2
20260508114524 51 312 0.0 0.0 0.00 0.73 0.00 97 1017.2
20260508114012 51 312 0.0 0.0 0.00 0.73 0.00 97 1017.0
20260508113510 51 312 0.0 0.0 0.00 0.73 0.00 97 1017.0
20260508113027 51 327 0.0 1.0 0.00 0.73 0.00 97 1016.8
20260508112508 50 327 0.0 1.0 0.00 0.73 0.00 97 1016.7
20260508112010 50 352 0.0 1.0 0.00 0.73 0.00 97 1016.6
20260508111527 50 341 0.0 1.0 0.00 0.73 0.00 96 1016.5
20260508111005 50 11 0.0 0.0 0.00 0.73 0.00 96 1016.4
20260508110505 50 12 0.0 0.0 0.00 0.73 0.00 96 1016.3
20260508110019 50 13 0.0 0.0 0.00 0.73 0.00 96 1016.3
20260508105507 50 13 0.0 0.0 0.00 0.73 0.00 96 1016.2
20260508105010 50 69 0.0 0.0 0.00 0.73 0.00 96 1016.2
20260508104534 50 71 0.0 0.0 0.00 0.73 0.00 96 1016.2
20260508104004 50 38 0.0 0.0 0.00 0.74 0.00 96 1016.1
20260508103504 50 39 0.0 0.0 0.00 0.74 0.00 96 1016.1
20260508103011 50 39 0.0 0.0 0.00 0.75 0.00 96 1015.9
20260508102504 49 39 0.0 0.0 0.00 0.75 0.00 96 1015.8
20260508102005 49 39 0.0 0.0 0.00 0.75 0.00 96 1015.7
20260508101516 49 39 0.0 0.0 0.00 0.75 0.00 96 1015.5
20260508101004 49 39 0.0 0.0 0.00 0.76 0.00 96 1015.6
20260508100505 49 39 0.0 0.0 0.00 0.76 0.00 96 1015.5
20260508100021 50 39 0.0 0.0 0.00 0.76 0.00 96 1015.4
20260508095506 50 39 0.0 0.0 0.00 0.77 0.00 96 1015.3